AMAZONAS 4A

Last updated on Sat Aug 15 2026 00:02:59 GMT+0000 (Coordinated Universal Time)

1 39616U 14011A 26226.55314934 -.00000268 00000+0 00000+0 0 9999 2 39616 0.0568 181.8909 0005439 340.6941 285.5099 1.00273131 45296
UTC large
Height (km)
Speed (km/s)
/
Latitude / Longitude
Inclination (degrees)
Orbital Period (minutes)
Azimuth
Elevation
Range (km)
Doppler Factor

Next 0 passes for location: London (51.5072 / 0.1276)

No passes found over London.
AMAZONAS 4A